Content
SEND FEEDBACK

Daily
Averages
Monthly
Summary
United States of America

WINTER BEACH, FLORIDA


Home > North America > United States > Florida
Elevation: 19 feet     Latitude: 27 38N     Longitude: 080 27W

WEATHER
 
SELECT A DAY
Number of Records: 190,666;   Date Range: 1/1/95 - 7/26/14
 
SHARE

PRINT THIS DATA

[ ← Previous Day ]
WEATHER ALMANAC - JANUARY 31, 2013
[ Next Day → ]
[ °C ]   °F
Weather ElementAverageHighLow
Temperature60.6 °F70 °F (2:53 pm)50 °F (10:53 pm)
Dewpoint51.4 °F66.9 °F (4:53 am)32 °F (10:53 pm)
Humidity75 %100 % (7:57 am)36 % (3:53 pm)
Barometer30.08 in30.21 in (10:53 pm)29.94 in (3:53 am)
Wind Speed10.5 mph18.4 mph (5:06 am)
Wind Gust28.8 mph (5:53 am)
Weather ElementAverage
Visibility8.4 mi
Wind DirectionWNW (299.4 °)

Weather ElementTotal
Precipitation0.15 in
Heating Degree Days5 (Base 65)
Growing Degree Days10 (Base 50)
Averaged from 34 records on January 31, 2013
WEATHER CONDITIONS BREAKOUT
WIND DIRECTION BREAKOUT
WEATHER BY HOUR - JANUARY 31, 2013
[ °C ]   °F
Local TimeTemperatureDewpointHumidityBarometerVisibilityWind DirectionWind SpeedGust SpeedPrecipitationEventsConditions
1:53 AM69.1 °F66.0 °F90 %29.96 in10.0 miSSW (200°)11.5 mph19.6 mphClear
2:53 AM69.1 °F66.0 °F90 %29.95 in10.0 miSouth (190°)11.5 mphClear
3:53 AM68.0 °F66.0 °F93 %29.94 in10.0 miSouth (190°)10.4 mphScattered Clouds
4:53 AM69.1 °F66.9 °F93 %29.94 in10.0 miSSW (210°)9.2 mphMostly Cloudy
5:06 AM69.8 °F66.2 °F88 %29.98 in8.0 miWest (260°)18.4 mph0.00 inRainLight Rain
5:16 AM66.2 °F64.4 °F94 %29.98 in7.0 miNW (310°)15.0 mph24.2 mph0.01 inRainLight Rain
5:23 AM64.4 °F62.6 °F94 %29.99 in7.0 miWNW (290°)15.0 mph0.02 inRainLight Rain
5:31 AM64.4 °F62.6 °F94 %30.00 in6.0 miWNW (300°)11.5 mph0.02 inRainLight Rain
5:53 AM60.1 °F57.0 °F90 %30.01 in7.0 miWNW (300°)16.1 mph28.8 mph0.04 inRainLight Rain
6:08 AM59.0 °F55.4 °F88 %30.02 in10.0 miWNW (300°)11.5 mph24.2 mph0.00 inOvercast
6:32 AM59.0 °F55.4 °F88 %30.03 in6.0 miNW (320°)16.1 mph0.00 inOvercast
6:39 AM57.2 °F55.4 °F94 %30.04 in7.0 miNW (320°)11.5 mph20.7 mph0.00 inOvercast
6:53 AM57.9 °F55.9 °F93 %30.05 in8.0 miNW (310°)13.8 mph0.00 inOvercast
7:46 AM55.4 °F53.6 °F94 %30.08 in2.5 miNNW (330°)10.4 mph0.03 inRainLight Rain
7:53 AM55.9 °F55.0 °F97 %30.08 in3.0 miNW (320°)8.1 mph0.03 inRainLight Rain
7:57 AM55.4 °F55.4 °F100 %30.09 in5.0 miNW (320°)10.4 mph0.00 inRainLight Rain
8:28 AM55.4 °F53.6 °F94 %30.11 in2.0 miNW (320°)11.5 mph0.00 inRainLight Rain
8:47 AM55.4 °F53.6 °F94 %30.11 in8.0 miNW (320°)6.9 mph0.00 inOvercast
8:53 AM55.9 °F54.0 °F93 %30.10 in10.0 miNNW (330°)5.8 mph0.00 inOvercast
9:53 AM57.9 °F51.1 °F78 %30.13 in10.0 miNW (320°)6.9 mphOvercast
10:53 AM57.9 °F50.0 °F75 %30.13 in9.0 miWNW (300°)5.8 mph0.00 inRainLight Rain
11:53 AM61.0 °F54.0 °F78 %30.13 in10.0 miNW (320°)8.1 mph0.00 inMostly Cloudy
12:53 PM66.9 °F53.1 °F61 %30.10 in10.0 miNNW (330°)8.1 mphClear
1:53 PM69.1 °F48.0 °F47 %30.09 in10.0 miWNW (300°)9.2 mphClear
2:53 PM70.0 °F46.9 °F44 %30.09 in10.0 miNW (320°)12.7 mphClear
3:53 PM69.1 °F41.0 °F36 %30.10 in10.0 miWNW (300°)10.4 mphClear
4:53 PM66.0 °F39.0 °F37 %30.11 in10.0 miWNW (300°)13.8 mphClear
5:53 PM61.0 °F39.0 °F44 %30.13 in10.0 miNW (310°)6.9 mphClear
6:53 PM55.9 °F35.1 °F45 %30.14 in10.0 miNW (320°)8.1 mphClear
7:53 PM54.0 °F34.0 °F47 %30.16 in10.0 miNW (320°)8.1 mphClear
8:53 PM54.0 °F34.0 °F47 %30.19 in10.0 miNNW (330°)10.4 mphClear
9:53 PM51.1 °F34.0 °F52 %30.19 in10.0 miNNW (330°)8.1 mphClear
10:53 PM50.0 °F32.0 °F50 %30.21 in10.0 miNW (320°)5.8 mphClear
11:53 PM51.1 °F32.0 °F48 %30.21 in10.0 miNW (320°)9.2 mphClear
Hourly data recorded from KVRB, located miles away from Winter Beach, Florida







STORIES FROM OUR PARTNERS